Time,TemperatureF,DewpointF,PressureIn,WindDirection,WindDirectionDegrees,WindSpeedMPH,WindSpeedGustMPH,Humidity,HourlyPrecipIn,Conditions,Clouds,dailyrainin,SoftwareType,DateUTC
2013-04-03 00:04:00,23.3,11.1,29.84,WNW,284,3.0,7.0,59,0.00,BKN,OVC,0.00,WeatherDisplay:10.37,2013-04-03 04:04:00,
2013-04-03 00:09:00,23.2,11.0,29.84,WNW,298,2.0,8.0,59,0.00,BKN,OVC,0.00,WeatherDisplay:10.37,2013-04-03 04:09:00,
2013-04-03 00:14:00,23.2,11.0,29.85,WNW,296,1.0,8.0,59,0.00,BKN,OVC,0.00,WeatherDisplay:10.37,2013-04-03 04:14:00,
2013-04-03 00:19:00,23.3,10.7,29.85,WNW,297,6.0,8.0,58,0.00,BKN,OVC,0.00,WeatherDisplay:10.37,2013-04-03 04:19:00,
2013-04-03 00:24:00,23.5,10.5,29.85,WNW,290,7.0,12.0,57,0.00,BKN,OVC,0.00,WeatherDisplay:10.37,2013-04-03 04:24:00,
2013-04-03 00:29:00,23.8,10.4,29.85,West,278,7.0,12.0,56,0.00,BKN,OVC,0.00,WeatherDisplay:10.37,2013-04-03 04:29:00,
2013-04-03 00:34:00,24.1,10.6,29.85,WNW,289,7.0,15.0,56,0.00,BKN,OVC,0.00,WeatherDisplay:10.37,2013-04-03 04:34:00,
2013-04-03 00:39:00,24.2,10.3,29.85,WNW,294,7.0,13.0,55,0.00,BKN,OVC,0.00,WeatherDisplay:10.37,2013-04-03 04:39:00,
2013-04-03 00:44:00,24.2,10.3,29.85,WNW,290,5.0,10.0,55,0.00,BKN,OVC,0.00,WeatherDisplay:10.37,2013-04-03 04:44:00,
2013-04-03 00:49:00,24.3,10.0,29.85,WNW,292,7.0,15.0,54,0.00,BKN,OVC,0.00,WeatherDisplay:10.37,2013-04-03 04:49:00,
2013-04-03 00:54:00,24.4,10.1,29.85,WNW,291,8.0,12.0,54,0.00,BKN,OVC,0.00,WeatherDisplay:10.37,2013-04-03 04:54:00,
2013-04-03 00:59:00,24.3,10.0,29.85,WNW,294,7.0,12.0,54,0.00,BKN,OVC,0.00,WeatherDisplay:10.37,2013-04-03 04:59:00,
2013-04-03 01:04:00,24.3,10.0,29.85,WNW,302,9.0,17.0,54,0.00,BKN,OVC,0.00,WeatherDisplay:10.37,2013-04-03 05:04:00,
2013-04-03 01:09:00,24.3,10.0,29.85,WNW,299,9.0,14.0,54,0.00,BKN,OVC,0.00,WeatherDisplay:10.37,2013-04-03 05:09:00,
2013-04-03 01:14:00,24.2,9.9,29.85,WNW,287,5.0,14.0,54,0.00,OVC,OVC,0.00,WeatherDisplay:10.37,2013-04-03 05:14:00,
2013-04-03 01:19:00,24.1,9.8,29.86,West,276,5.0,12.0,54,0.00,OVC,OVC,0.00,WeatherDisplay:10.37,2013-04-03 05:19:00,
2013-04-03 01:24:00,24.1,9.8,29.86,WNW,303,7.0,13.0,54,0.00,OVC,OVC,0.00,WeatherDisplay:10.37,2013-04-03 05:24:00,
2013-04-03 01:29:00,23.9,10.1,29.86,WNW,293,7.0,12.0,55,0.00,OVC,OVC,0.00,WeatherDisplay:10.37,2013-04-03 05:29:00,
2013-04-03 01:34:00,23.8,10.0,29.86,WNW,293,7.0,10.0,55,0.00,OVC,OVC,0.00,WeatherDisplay:10.37,2013-04-03 05:34:00,
2013-04-03 01:39:00,23.7,10.3,29.86,WNW,298,8.0,13.0,56,0.00,OVC,OVC,0.00,WeatherDisplay:10.37,2013-04-03 05:39:00,
2013-04-03 01:44:00,23.6,9.8,29.86,WNW,289,6.0,20.0,55,0.00,OVC,OVC,0.00,WeatherDisplay:10.37,2013-04-03 05:44:00,
2013-04-03 01:49:00,23.6,10.2,29.86,WNW,299,9.0,18.0,56,0.00,OVC,OVC,0.00,WeatherDisplay:10.37,2013-04-03 05:49:00,
2013-04-03 01:54:00,23.5,10.1,29.86,NW,312,6.0,12.0,56,0.00,OVC,OVC,0.00,WeatherDisplay:10.37,2013-04-03 05:54:00,
2013-04-03 01:59:00,23.4,10.4,29.86,NW,308,8.0,12.0,57,0.00,OVC,OVC,0.00,WeatherDisplay:10.37,2013-04-03 05:59:00,
2013-04-03 02:04:00,23.2,10.2,29.86,WNW,302,7.0,12.0,57,0.00,OVC,OVC,0.00,WeatherDisplay:10.37,2013-04-03 06:04:00,
2013-04-03 02:09:00,23.2,10.2,29.87,WNW,300,3.0,12.0,57,0.00,OVC,OVC,0.00,WeatherDisplay:10.37,2013-04-03 06:09:00,
2013-04-03 02:19:00,23.0,9.6,29.86,West,260,9.0,13.0,56,0.00,OVC,OVC,0.00,WeatherDisplay:10.37,2013-04-03 06:19:00,
2013-04-03 02:24:00,22.9,9.9,29.87,West,274,5.0,7.0,57,0.00,OVC,OVC,0.00,WeatherDisplay:10.37,2013-04-03 06:24:00,
2013-04-03 02:29:00,22.7,9.8,29.86,West,273,6.0,10.0,57,0.00,OVC,OVC,0.00,WeatherDisplay:10.37,2013-04-03 06:29:00,
2013-04-03 02:34:00,22.7,9.7,29.86,WNW,288,6.0,10.0,57,0.00,OVC,OVC,0.00,WeatherDisplay:10.37,2013-04-03 06:34:00,
2013-04-03 02:39:00,22.6,9.6,29.86,WNW,297,8.0,14.0,57,0.00,OVC,OVC,0.00,WeatherDisplay:10.37,2013-04-03 06:39:00,
2013-04-03 02:44:00,22.6,9.6,29.86,WNW,289,8.0,14.0,57,0.00,OVC,OVC,0.00,WeatherDisplay:10.37,2013-04-03 06:44:00,
2013-04-03 02:49:00,22.6,9.3,29.86,WNW,294,8.0,21.0,56,0.00,OVC,OVC,0.00,WeatherDisplay:10.37,2013-04-03 06:49:00,
2013-04-03 02:54:00,22.6,9.3,29.86,NW,312,9.0,17.0,56,0.00,OVC,OVC,0.00,WeatherDisplay:10.37,2013-04-03 06:54:00,
2013-04-03 02:59:00,22.7,9.3,29.86,NW,316,6.0,10.0,56,0.00,OVC,OVC,0.00,WeatherDisplay:10.37,2013-04-03 06:59:00,
2013-04-03 03:04:00,22.5,9.5,29.86,WNW,301,5.0,10.0,57,0.00,OVC,OVC,0.00,WeatherDisplay:10.37,2013-04-03 07:04:00,
2013-04-03 03:09:00,22.4,9.1,29.86,WNW,291,6.0,13.0,56,0.00,OVC,OVC,0.00,WeatherDisplay:10.37,2013-04-03 07:09:00,
2013-04-03 03:14:00,22.4,9.4,29.86,WNW,291,7.0,14.0,57,0.00,OVC,OVC,0.00,WeatherDisplay:10.37,2013-04-03 07:14:00,
2013-04-03 03:19:00,22.4,9.1,29.86,WNW,282,8.0,20.0,56,0.00,OVC,OVC,0.00,WeatherDisplay:10.37,2013-04-03 07:19:00,
2013-04-03 03:24:00,22.4,9.1,29.86,WNW,285,8.0,13.0,56,0.00,OVC,OVC,0.00,WeatherDisplay:10.37,2013-04-03 07:24:00,
2013-04-03 03:29:00,22.3,9.0,29.86,WNW,300,5.0,12.0,56,0.00,OVC,OVC,0.00,WeatherDisplay:10.37,2013-04-03 07:29:00,
2013-04-03 03:34:00,22.2,8.9,29.86,WNW,288,3.0,9.0,56,0.00,OVC,OVC,0.00,WeatherDisplay:10.37,2013-04-03 07:34:00,
2013-04-03 03:39:00,22.1,9.2,29.85,West,280,6.0,9.0,57,0.00,OVC,OVC,0.00,WeatherDisplay:10.37,2013-04-03 07:39:00,
2013-04-03 03:44:00,22.0,9.0,29.85,West,277,1.0,8.0,57,0.00,OVC,OVC,0.00,WeatherDisplay:10.37,2013-04-03 07:44:00,
2013-04-03 03:49:00,21.9,8.9,29.85,West,268,3.0,12.0,57,0.00,OVC,OVC,0.00,WeatherDisplay:10.37,2013-04-03 07:49:00,
2013-04-03 03:54:00,21.9,9.0,29.86,West,265,6.0,18.0,57,0.00,OVC,OVC,0.00,WeatherDisplay:10.37,2013-04-03 07:54:00,
2013-04-03 03:59:00,22.0,9.0,29.85,West,275,8.0,16.0,57,0.00,OVC,OVC,0.00,WeatherDisplay:10.37,2013-04-03 07:59:00,
2013-04-03 04:04:00,22.0,9.4,29.85,WNW,290,6.0,13.0,58,0.00,OVC,OVC,0.00,WeatherDisplay:10.37,2013-04-03 08:04:00,
2013-04-03 04:09:00,21.9,9.0,29.85,WNW,295,7.0,12.0,57,0.00,OVC,OVC,0.00,WeatherDisplay:10.37,2013-04-03 08:09:00,
2013-04-03 04:14:00,21.9,9.0,29.85,WNW,282,8.0,15.0,57,0.00,OVC,OVC,0.00,WeatherDisplay:10.37,2013-04-03 08:14:00,
2013-04-03 04:19:00,22.0,9.1,29.86,WNW,283,6.0,15.0,57,0.00,OVC,OVC,0.00,WeatherDisplay:10.37,2013-04-03 08:19:00,
2013-04-03 04:24:00,21.9,9.0,29.86,WNW,285,9.0,19.0,57,0.00,OVC,OVC,0.00,WeatherDisplay:10.37,2013-04-03 08:24:00,
2013-04-03 04:29:00,21.9,9.0,29.86,WNW,290,6.0,14.0,57,0.00,OVC,OVC,0.00,WeatherDisplay:10.37,2013-04-03 08:29:00,
2013-04-03 04:34:00,21.8,8.9,29.86,NW,308,9.0,16.0,57,0.00,OVC,OVC,0.00,WeatherDisplay:10.37,2013-04-03 08:34:00,
2013-04-03 04:39:00,21.7,9.2,29.86,WNW,298,7.0,13.0,58,0.00,OVC,OVC,0.00,WeatherDisplay:10.37,2013-04-03 08:39:00,
2013-04-03 04:44:00,21.7,8.8,29.86,West,279,9.0,16.0,57,0.00,OVC,OVC,0.00,WeatherDisplay:10.37,2013-04-03 08:44:00,
2013-04-03 04:49:00,21.6,9.1,29.86,WNW,290,5.0,15.0,58,0.00,OVC,OVC,0.00,WeatherDisplay:10.37,2013-04-03 08:49:00,
2013-04-03 04:54:00,21.5,9.0,29.86,WNW,301,6.0,13.0,58,0.00,OVC,OVC,0.00,WeatherDisplay:10.37,2013-04-03 08:54:00,
2013-04-03 04:59:00,21.4,8.9,29.86,WNW,296,6.0,12.0,58,0.00,OVC,OVC,0.00,WeatherDisplay:10.37,2013-04-03 08:59:00,
2013-04-03 05:09:00,21.4,8.9,29.86,WNW,291,5.0,13.0,58,0.00,OVC,OVC,0.00,WeatherDisplay:10.37,2013-04-03 09:09:00,
2013-04-03 05:14:00,21.3,8.8,29.86,WNW,298,5.0,13.0,58,0.00,OVC,OVC,0.00,WeatherDisplay:10.37,2013-04-03 09:14:00,
2013-04-03 05:19:00,21.2,9.1,29.87,WNW,292,6.0,14.0,59,0.00,OVC,OVC,0.00,WeatherDisplay:10.37,2013-04-03 09:19:00,
2013-04-03 05:24:00,21.2,9.1,29.87,WNW,291,7.0,12.0,59,0.00,OVC,OVC,0.00,WeatherDisplay:10.37,2013-04-03 09:24:00,
2013-04-03 05:29:00,21.1,9.0,29.87,WNW,297,6.0,15.0,59,0.00,OVC,OVC,0.00,WeatherDisplay:10.37,2013-04-03 09:29:00,
2013-04-03 05:34:00,21.1,9.0,29.87,WNW,297,10.0,15.0,59,0.00,OVC,OVC,0.00,WeatherDisplay:10.37,2013-04-03 09:34:00,
2013-04-03 05:39:00,21.1,9.4,29.87,WNW,295,5.0,14.0,60,0.00,OVC,OVC,0.00,WeatherDisplay:10.37,2013-04-03 09:39:00,
2013-04-03 05:44:00,21.1,9.0,29.87,WNW,290,8.0,20.0,59,0.00,OVC,OVC,0.00,WeatherDisplay:10.37,2013-04-03 09:44:00,
2013-04-03 05:49:00,21.0,8.9,29.87,WNW,288,6.0,13.0,59,0.00,OVC,OVC,0.00,WeatherDisplay:10.37,2013-04-03 09:49:00,
2013-04-03 05:54:00,21.0,9.3,29.87,WNW,286,6.0,16.0,60,0.00,OVC,OVC,0.00,WeatherDisplay:10.37,2013-04-03 09:54:00,
2013-04-03 05:59:00,21.0,9.3,29.88,WNW,300,10.0,18.0,60,0.00,OVC,OVC,0.00,WeatherDisplay:10.37,2013-04-03 09:59:00,
2013-04-03 06:04:00,20.9,9.1,29.88,WNW,297,5.0,9.0,60,0.00,OVC,OVC,0.00,WeatherDisplay:10.37,2013-04-03 10:04:00,
2013-04-03 06:09:00,20.8,9.1,29.88,WNW,284,6.0,12.0,60,0.00,OVC,OVC,0.00,WeatherDisplay:10.37,2013-04-03 10:09:00,
2013-04-03 06:14:00,20.7,9.0,29.88,WNW,294,8.0,15.0,60,0.00,OVC,OVC,0.00,WeatherDisplay:10.37,2013-04-03 10:14:00,
2013-04-03 06:19:00,20.7,9.0,29.89,WNW,289,6.0,10.0,60,0.00,OVC,OVC,0.00,WeatherDisplay:10.37,2013-04-03 10:19:00,
2013-04-03 06:24:00,20.6,9.3,29.89,WNW,291,6.0,13.0,61,0.00,OVC,OVC,0.00,WeatherDisplay:10.37,2013-04-03 10:24:00,
2013-04-03 06:29:00,20.6,8.9,29.89,West,280,8.0,12.0,60,0.00,OVC,OVC,0.00,WeatherDisplay:10.37,2013-04-03 10:29:00,
2013-04-03 06:34:00,20.6,8.9,29.89,WNW,284,8.0,18.0,60,0.00,OVC,OVC,0.00,WeatherDisplay:10.37,2013-04-03 10:34:00,
2013-04-03 06:39:00,20.6,8.9,29.89,WNW,298,7.0,18.0,60,0.00,OVC,OVC,0.00,WeatherDisplay:10.37,2013-04-03 10:39:00,
2013-04-03 06:44:00,20.7,8.9,29.89,WNW,289,8.0,17.0,60,0.00,OVC,OVC,0.00,WeatherDisplay:10.37,2013-04-03 10:44:00,
2013-04-03 06:49:00,20.6,8.9,29.90,WNW,298,8.0,12.0,60,0.00,OVC,OVC,0.00,WeatherDisplay:10.37,2013-04-03 10:49:00,
2013-04-03 06:54:00,20.5,9.2,29.90,WNW,301,5.0,12.0,61,0.00,OVC,OVC,0.00,WeatherDisplay:10.37,2013-04-03 10:54:00,
2013-04-03 06:59:00,20.5,9.1,29.90,West,273,6.0,12.0,61,0.00,OVC,OVC,0.00,WeatherDisplay:10.37,2013-04-03 10:59:00,
2013-04-03 07:04:00,20.5,9.2,29.90,West,270,8.0,16.0,61,0.00,OVC,OVC,0.00,WeatherDisplay:10.37,2013-04-03 11:04:00,
2013-04-03 07:09:00,20.5,8.8,29.90,WNW,290,8.0,14.0,60,0.00,OVC,OVC,0.00,WeatherDisplay:10.37,2013-04-03 11:09:00,
2013-04-03 07:14:00,20.6,9.3,29.90,WNW,295,5.0,14.0,61,0.00,OVC,OVC,0.00,WeatherDisplay:10.37,2013-04-03 11:14:00,
2013-04-03 07:19:00,20.6,9.3,29.91,WNW,301,6.0,13.0,61,0.00,OVC,OVC,0.00,WeatherDisplay:10.37,2013-04-03 11:19:00,
2013-04-03 07:24:00,20.6,8.9,29.91,West,281,5.0,16.0,60,0.00,OVC,OVC,0.00,WeatherDisplay:10.37,2013-04-03 11:24:00,
2013-04-03 07:29:00,20.6,9.3,29.91,WNW,283,7.0,12.0,61,0.00,OVC,OVC,0.00,WeatherDisplay:10.37,2013-04-03 11:29:00,
2013-04-03 07:34:00,20.6,9.3,29.91,WNW,288,6.0,14.0,61,0.00,OVC,OVC,0.00,WeatherDisplay:10.37,2013-04-03 11:34:00,
2013-04-03 07:39:00,20.7,9.4,29.91,WNW,290,12.0,20.0,61,0.00,OVC,OVC,0.00,WeatherDisplay:10.37,2013-04-03 11:39:00,
2013-04-03 07:44:00,20.7,9.4,29.91,WNW,287,8.0,17.0,61,0.00,OVC,OVC,0.00,WeatherDisplay:10.37,2013-04-03 11:44:00,
2013-04-03 07:54:00,20.8,9.1,29.92,WNW,292,13.0,20.0,60,0.00,OVC,OVC,0.00,WeatherDisplay:10.37,2013-04-03 11:54:00,
2013-04-03 07:59:00,20.9,9.2,29.92,WNW,282,9.0,20.0,60,0.00,OVC,OVC,0.00,WeatherDisplay:10.37,2013-04-03 11:59:00,
2013-04-03 08:09:00,21.0,9.3,29.92,WNW,293,6.0,14.0,60,0.00,OVC,OVC,0.00,WeatherDisplay:10.37,2013-04-03 12:09:00,
2013-04-03 08:14:00,21.1,9.4,29.92,WNW,293,8.0,15.0,60,0.00,BKN,OVC,0.00,WeatherDisplay:10.37,2013-04-03 12:14:00,
2013-04-03 08:19:00,21.2,9.5,29.92,WNW,296,9.0,17.0,60,0.00,BKN,OVC,0.00,WeatherDisplay:10.37,2013-04-03 12:19:00,
2013-04-03 08:24:00,21.3,9.6,29.92,WNW,297,9.0,15.0,60,0.00,BKN,OVC,0.00,WeatherDisplay:10.37,2013-04-03 12:24:00,
2013-04-03 08:29:00,21.7,9.9,29.92,WNW,295,8.0,16.0,60,0.00,BKN,OVC,0.00,WeatherDisplay:10.37,2013-04-03 12:29:00,
2013-04-03 08:34:00,21.7,9.6,29.92,West,281,9.0,23.0,59,0.00,BKN,OVC,0.00,WeatherDisplay:10.37,2013-04-03 12:34:00,
2013-04-03 08:39:00,22.0,9.9,29.92,WNW,296,12.0,20.0,59,0.00,BKN,OVC,0.00,WeatherDisplay:10.37,2013-04-03 12:39:00,
2013-04-03 08:44:00,22.2,10.1,29.92,WNW,302,7.0,16.0,59,0.00,BKN,OVC,0.00,WeatherDisplay:10.37,2013-04-03 12:44:00,
2013-04-03 08:49:00,22.4,10.2,29.92,WNW,286,9.0,20.0,59,0.00,BKN,OVC,0.00,WeatherDisplay:10.37,2013-04-03 12:49:00,
2013-04-03 08:54:00,22.4,9.8,29.92,West,274,12.0,18.0,58,0.00,BKN,OVC,0.00,WeatherDisplay:10.37,2013-04-03 12:54:00,
2013-04-03 08:59:00,22.2,9.7,29.92,WNW,283,15.0,22.0,58,0.00,BKN,OVC,0.00,WeatherDisplay:10.37,2013-04-03 12:59:00,
2013-04-03 09:04:00,22.3,10.1,29.93,WNW,292,7.0,17.0,59,0.00,BKN,OVC,0.00,WeatherDisplay:10.37,2013-04-03 13:04:00,
2013-04-03 09:09:00,22.4,9.8,29.92,WNW,283,9.0,21.0,58,0.00,BKN,OVC,0.00,WeatherDisplay:10.37,2013-04-03 13:09:00,
2013-04-03 09:14:00,22.3,9.7,29.92,West,280,9.0,21.0,58,0.00,BKN,OVC,0.00,WeatherDisplay:10.37,2013-04-03 13:14:00,
2013-04-03 09:24:00,22.4,9.8,29.93,WNW,297,13.0,20.0,58,0.00,BKN,OVC,0.00,WeatherDisplay:10.37,2013-04-03 13:24:00,
2013-04-03 09:29:00,22.7,10.1,29.93,WNW,290,10.0,20.0,58,0.00,BKN,OVC,0.00,WeatherDisplay:10.37,2013-04-03 13:29:00,
2013-04-03 09:34:00,23.0,10.4,29.93,West,266,10.0,15.0,58,0.00,BKN,OVC,0.00,WeatherDisplay:10.37,2013-04-03 13:34:00,
2013-04-03 09:39:00,23.0,10.0,29.93,West,280,5.0,19.0,57,0.00,BKN,OVC,0.00,WeatherDisplay:10.37,2013-04-03 13:39:00,
2013-04-03 09:44:00,23.4,10.4,29.93,West,273,8.0,12.0,57,0.00,BKN,OVC,0.00,WeatherDisplay:10.37,2013-04-03 13:44:00,
2013-04-03 09:49:00,23.5,10.5,29.93,WSW,248,9.0,18.0,57,0.00,BKN,OVC,0.00,WeatherDisplay:10.37,2013-04-03 13:49:00,
2013-04-03 09:54:00,23.7,10.3,29.93,West,270,8.0,18.0,56,0.00,BKN,OVC,0.00,WeatherDisplay:10.37,2013-04-03 13:54:00,
2013-04-03 09:59:00,24.3,10.8,29.93,WNW,292,8.0,15.0,56,0.00,BKN,OVC,0.00,WeatherDisplay:10.37,2013-04-03 13:59:00,
2013-04-03 10:04:00,24.8,10.9,29.93,WNW,298,9.0,15.0,55,0.00,BKN,OVC,0.00,WeatherDisplay:10.37,2013-04-03 14:04:00,
2013-04-03 10:14:00,24.9,11.4,29.93,West,273,6.0,16.0,56,0.00,BKN,OVC,0.00,WeatherDisplay:10.37,2013-04-03 14:14:00,
2013-04-03 10:19:00,25.5,11.6,29.93,WNW,300,7.0,16.0,55,0.00,BKN,OVC,0.00,WeatherDisplay:10.37,2013-04-03 14:19:00,
2013-04-03 10:24:00,26.0,11.6,29.93,WNW,295,3.0,18.0,54,0.00,BKN,OVC,0.00,WeatherDisplay:10.37,2013-04-03 14:24:00,
2013-04-03 10:29:00,26.2,11.8,29.93,WNW,288,6.0,17.0,54,0.00,BKN,OVC,0.00,WeatherDisplay:10.37,2013-04-03 14:29:00,
2013-04-03 10:34:00,26.4,11.6,29.93,WNW,286,9.0,17.0,53,0.00,BKN,OVC,0.00,WeatherDisplay:10.37,2013-04-03 14:34:00,
2013-04-03 10:39:00,26.6,11.8,29.93,WNW,288,8.0,17.0,53,0.00,BKN,OVC,0.00,WeatherDisplay:10.37,2013-04-03 14:39:00,
2013-04-03 10:44:00,27.1,12.7,29.93,WNW,294,7.0,15.0,54,0.00,BKN,OVC,0.00,WeatherDisplay:10.37,2013-04-03 14:44:00,
2013-04-03 10:49:00,27.5,12.6,29.93,WNW,298,9.0,16.0,53,0.00,BKN,OVC,0.00,WeatherDisplay:10.37,2013-04-03 14:49:00,
2013-04-03 10:54:00,27.6,12.7,29.93,WNW,298,12.0,21.0,53,0.00,BKN,OVC,0.00,WeatherDisplay:10.37,2013-04-03 14:54:00,
2013-04-03 10:59:00,27.5,12.2,29.93,WNW,294,16.0,21.0,52,0.00,BKN,OVC,0.00,WeatherDisplay:10.37,2013-04-03 14:59:00,
2013-04-03 11:04:00,27.6,12.7,29.93,WNW,303,7.0,15.0,53,0.00,BKN,OVC,0.00,WeatherDisplay:10.37,2013-04-03 15:04:00,
2013-04-03 11:09:00,28.0,12.1,29.93,WNW,291,8.0,17.0,51,0.00,BKN,OVC,0.00,WeatherDisplay:10.37,2013-04-03 15:09:00,
2013-04-03 11:14:00,28.0,12.2,29.93,WNW,297,15.0,23.0,51,0.00,BKN,OVC,0.00,WeatherDisplay:10.37,2013-04-03 15:14:00,
2013-04-03 11:24:00,27.9,12.1,29.93,WNW,293,9.0,17.0,51,0.00,BKN,OVC,0.00,WeatherDisplay:10.37,2013-04-03 15:24:00,
2013-04-03 11:29:00,28.7,13.2,29.93,WNW,282,9.0,24.0,52,0.00,BKN,OVC,0.00,WeatherDisplay:10.37,2013-04-03 15:29:00,
2013-04-03 11:34:00,28.3,12.4,29.93,WNW,303,10.0,24.0,51,0.00,BKN,OVC,0.00,WeatherDisplay:10.37,2013-04-03 15:34:00,
2013-04-03 11:39:00,28.7,12.8,29.93,NW,315,13.0,18.0,51,0.00,BKN,OVC,0.00,WeatherDisplay:10.37,2013-04-03 15:39:00,
2013-04-03 11:44:00,29.0,13.5,29.93,WNW,292,5.0,14.0,52,0.00,BKN,OVC,0.00,WeatherDisplay:10.37,2013-04-03 15:44:00,
2013-04-03 11:49:00,29.6,13.7,29.93,West,259,7.0,15.0,51,0.00,BKN,OVC,0.00,WeatherDisplay:10.37,2013-04-03 15:49:00,
2013-04-03 11:54:00,30.0,13.6,29.93,West,277,10.0,20.0,50,0.00,BKN,OVC,0.00,WeatherDisplay:10.37,2013-04-03 15:54:00,
2013-04-03 11:59:00,29.8,13.4,29.94,West,276,15.0,23.0,50,0.00,BKN,OVC,0.00,WeatherDisplay:10.37,2013-04-03 15:59:00,
2013-04-03 12:09:00,29.8,14.3,29.93,WNW,295,7.0,20.0,52,0.00,BKN,OVC,0.00,WeatherDisplay:10.37,2013-04-03 16:09:00,
2013-04-03 12:14:00,30.0,13.1,29.93,NW,305,7.0,19.0,49,0.00,SCT,OVC,0.00,WeatherDisplay:10.37,2013-04-03 16:14:00,
2013-04-03 12:19:00,30.4,14.0,29.93,WNW,293,8.0,17.0,50,0.00,SCT,OVC,0.00,WeatherDisplay:10.37,2013-04-03 16:19:00,
2013-04-03 12:24:00,30.3,13.0,29.93,WNW,294,12.0,25.0,48,0.00,SCT,OVC,0.00,WeatherDisplay:10.37,2013-04-03 16:24:00,
2013-04-03 12:29:00,30.0,13.1,29.93,WNW,292,12.0,20.0,49,0.00,SCT,OVC,0.00,WeatherDisplay:10.37,2013-04-03 16:29:00,
2013-04-03 12:34:00,30.2,13.3,29.93,WNW,292,12.0,18.0,49,0.00,SCT,OVC,0.00,WeatherDisplay:10.37,2013-04-03 16:34:00,
2013-04-03 12:39:00,30.3,13.4,29.93,WNW,298,13.0,26.0,49,0.00,SCT,OVC,0.00,WeatherDisplay:10.37,2013-04-03 16:39:00,
2013-04-03 12:49:00,30.6,13.6,29.93,WNW,303,14.0,25.0,49,0.00,SCT,OVC,0.00,WeatherDisplay:10.37,2013-04-03 16:49:00,
2013-04-03 12:59:00,31.6,14.6,29.93,West,276,8.0,13.0,49,0.00,SCT,OVC,0.00,WeatherDisplay:10.37,2013-04-03 16:59:00,
2013-04-03 13:04:00,31.1,14.6,29.93,WNW,282,9.0,18.0,50,0.00,SCT,OVC,0.00,WeatherDisplay:10.37,2013-04-03 17:04:00,
2013-04-03 13:09:00,30.9,14.0,29.94,WNW,287,13.0,21.0,49,0.00,SCT,OVC,0.00,WeatherDisplay:10.37,2013-04-03 17:09:00,
2013-04-03 13:19:00,31.4,14.4,29.94,NW,304,10.0,22.0,49,0.00,SCT,OVC,0.00,WeatherDisplay:10.37,2013-04-03 17:19:00,
2013-04-03 13:24:00,31.1,13.7,29.93,WNW,297,10.0,25.0,48,0.00,SCT,OVC,0.00,WeatherDisplay:10.37,2013-04-03 17:24:00,
2013-04-03 13:29:00,31.3,14.3,29.94,WNW,287,10.0,22.0,49,0.00,SCT,OVC,0.00,WeatherDisplay:10.37,2013-04-03 17:29:00,
2013-04-03 13:39:00,31.9,14.4,29.94,WNW,294,8.0,20.0,48,0.00,SCT,OVC,0.00,WeatherDisplay:10.37,2013-04-03 17:39:00,
2013-04-03 13:49:00,31.9,14.9,29.94,NW,310,13.0,24.0,49,0.00,SCT,OVC,0.00,WeatherDisplay:10.37,2013-04-03 17:49:00,
2013-04-03 13:54:00,32.2,14.6,29.94,WNW,295,10.0,27.0,48,0.00,SCT,OVC,0.00,WeatherDisplay:10.37,2013-04-03 17:54:00,
2013-04-03 14:04:00,32.4,14.9,29.94,WNW,301,12.0,22.0,48,0.00,SCT,OVC,0.00,WeatherDisplay:10.37,2013-04-03 18:04:00,
2013-04-03 14:09:00,32.8,15.2,29.94,WNW,285,9.0,21.0,48,0.00,SCT,OVC,0.00,WeatherDisplay:10.37,2013-04-03 18:09:00,
2013-04-03 14:14:00,33.0,14.9,29.95,WNW,285,10.0,20.0,47,0.00,SCT,OVC,0.00,WeatherDisplay:10.37,2013-04-03 18:14:00,
2013-04-03 14:24:00,33.1,15.5,29.95,NW,311,8.0,25.0,48,0.00,SCT,OVC,0.00,WeatherDisplay:10.37,2013-04-03 18:24:00,
2013-04-03 14:29:00,33.2,15.2,29.95,WNW,291,9.0,24.0,47,0.00,SCT,OVC,0.00,WeatherDisplay:10.37,2013-04-03 18:29:00,
2013-04-03 14:34:00,33.3,15.7,29.96,West,278,8.0,18.0,48,0.00,SCT,OVC,0.00,WeatherDisplay:10.37,2013-04-03 18:34:00,
2013-04-03 14:39:00,33.2,15.6,29.96,WNW,293,12.0,25.0,48,0.00,SCT,OVC,0.00,WeatherDisplay:10.37,2013-04-03 18:39:00,
2013-04-03 14:44:00,33.6,16.0,29.95,WNW,297,8.0,20.0,48,0.00,SCT,OVC,0.00,WeatherDisplay:10.37,2013-04-03 18:44:00,
2013-04-03 14:49:00,33.8,16.2,29.96,WNW,285,8.0,23.0,48,0.00,SCT,OVC,0.00,WeatherDisplay:10.37,2013-04-03 18:49:00,
2013-04-03 14:59:00,33.4,15.8,29.96,WNW,300,9.0,20.0,48,0.00,SCT,OVC,0.00,WeatherDisplay:10.37,2013-04-03 18:59:00,
2013-04-03 15:04:00,33.9,16.2,29.96,WNW,289,7.0,18.0,48,0.00,SCT,OVC,0.00,WeatherDisplay:10.37,2013-04-03 19:04:00,
2013-04-03 15:09:00,34.1,15.9,29.96,WNW,283,10.0,22.0,47,0.00,SCT,OVC,0.00,WeatherDisplay:10.37,2013-04-03 19:09:00,
2013-04-03 15:14:00,33.9,15.8,29.96,WNW,297,12.0,20.0,47,0.00,BKN,OVC,0.00,WeatherDisplay:10.37,2013-04-03 19:14:00,
2013-04-03 15:19:00,34.0,16.3,29.97,WNW,296,14.0,22.0,48,0.00,BKN,OVC,0.00,WeatherDisplay:10.37,2013-04-03 19:19:00,
2013-04-03 15:29:00,33.1,15.5,29.97,WNW,287,9.0,26.0,48,0.00,BKN,OVC,0.00,WeatherDisplay:10.37,2013-04-03 19:29:00,
2013-04-03 15:39:00,34.0,16.3,29.98,WNW,298,10.0,20.0,48,0.00,BKN,OVC,0.00,WeatherDisplay:10.37,2013-04-03 19:39:00,
2013-04-03 15:44:00,34.0,16.3,29.98,WNW,298,9.0,20.0,48,0.00,BKN,OVC,0.00,WeatherDisplay:10.37,2013-04-03 19:44:00,
2013-04-03 15:49:00,33.9,16.2,29.98,WNW,294,12.0,20.0,48,0.00,BKN,OVC,0.00,WeatherDisplay:10.37,2013-04-03 19:49:00,
2013-04-03 15:54:00,34.0,16.3,29.98,WNW,289,8.0,21.0,48,0.00,BKN,OVC,0.00,WeatherDisplay:10.37,2013-04-03 19:54:00,
2013-04-03 15:59:00,33.9,16.3,29.98,WNW,291,9.0,15.0,48,0.00,BKN,OVC,0.00,WeatherDisplay:10.37,2013-04-03 19:59:00,
2013-04-03 16:04:00,33.9,15.8,29.99,WNW,299,13.0,22.0,47,0.00,BKN,OVC,0.00,WeatherDisplay:10.37,2013-04-03 20:04:00,
2013-04-03 16:09:00,33.4,16.3,29.99,WNW,290,12.0,24.0,49,0.00,BKN,OVC,0.00,WeatherDisplay:10.37,2013-04-03 20:09:00,
2013-04-03 16:14:00,33.2,15.6,29.99,WNW,285,8.0,17.0,48,0.00,BKN,OVC,0.00,WeatherDisplay:10.37,2013-04-03 20:14:00,
2013-04-03 16:24:00,33.1,16.5,30.00,WNW,294,10.0,18.0,50,0.00,BKN,OVC,0.00,WeatherDisplay:10.37,2013-04-03 20:24:00,
2013-04-03 16:34:00,33.3,16.2,30.00,WNW,296,10.0,17.0,49,0.00,BKN,OVC,0.00,WeatherDisplay:10.37,2013-04-03 20:34:00,
2013-04-03 16:39:00,33.2,16.6,30.00,WNW,302,10.0,20.0,50,0.00,BKN,OVC,0.00,WeatherDisplay:10.37,2013-04-03 20:39:00,
2013-04-03 16:44:00,33.3,16.6,30.00,WNW,297,6.0,15.0,50,0.00,BKN,OVC,0.00,WeatherDisplay:10.37,2013-04-03 20:44:00,
2013-04-03 16:49:00,33.1,16.0,30.00,WNW,299,9.0,14.0,49,0.00,BKN,OVC,0.00,WeatherDisplay:10.37,2013-04-03 20:49:00,
2013-04-03 16:54:00,32.9,16.3,30.00,West,278,6.0,15.0,50,0.00,BKN,OVC,0.00,WeatherDisplay:10.37,2013-04-03 20:54:00,
2013-04-03 17:04:00,33.3,16.6,30.00,WNW,300,6.0,13.0,50,0.00,BKN,OVC,0.00,WeatherDisplay:10.37,2013-04-03 21:04:00,
2013-04-03 17:09:00,33.1,16.0,30.00,WNW,299,10.0,23.0,49,0.00,BKN,OVC,0.00,WeatherDisplay:10.37,2013-04-03 21:09:00,
2013-04-03 17:14:00,32.9,15.8,30.00,WNW,301,9.0,17.0,49,0.00,OVC,OVC,0.00,WeatherDisplay:10.37,2013-04-03 21:14:00,
2013-04-03 17:19:00,32.9,16.3,30.01,WNW,292,6.0,18.0,50,0.00,OVC,OVC,0.00,WeatherDisplay:10.37,2013-04-03 21:19:00,
2013-04-03 17:29:00,33.7,17.1,30.01,NW,305,6.0,10.0,50,0.00,OVC,OVC,0.00,WeatherDisplay:10.37,2013-04-03 21:29:00,
2013-04-03 17:34:00,33.8,16.6,30.01,WNW,299,8.0,15.0,49,0.00,OVC,OVC,0.00,WeatherDisplay:10.37,2013-04-03 21:34:00,
2013-04-03 17:39:00,33.7,16.6,30.01,WNW,292,9.0,22.0,49,0.00,OVC,OVC,0.00,WeatherDisplay:10.37,2013-04-03 21:39:00,
2013-04-03 17:44:00,33.5,16.4,30.02,WNW,293,12.0,20.0,49,0.00,OVC,OVC,0.00,WeatherDisplay:10.37,2013-04-03 21:44:00,
2013-04-03 17:49:00,33.6,16.5,30.02,NW,307,9.0,15.0,49,0.00,OVC,OVC,0.00,WeatherDisplay:10.37,2013-04-03 21:49:00,
2013-04-03 17:54:00,33.7,17.0,30.02,NW,319,12.0,18.0,50,0.00,OVC,OVC,0.00,WeatherDisplay:10.37,2013-04-03 21:54:00,
2013-04-03 17:59:00,34.0,16.8,30.02,WNW,292,8.0,17.0,49,0.00,OVC,OVC,0.00,WeatherDisplay:10.37,2013-04-03 21:59:00,
2013-04-03 18:04:00,33.9,16.7,30.03,West,279,12.0,20.0,49,0.00,OVC,OVC,0.00,WeatherDisplay:10.37,2013-04-03 22:04:00,
2013-04-03 18:09:00,33.8,16.6,30.03,NW,304,12.0,18.0,49,0.00,OVC,OVC,0.00,WeatherDisplay:10.37,2013-04-03 22:09:00,
2013-04-03 18:14:00,33.6,16.9,30.03,NW,305,14.0,23.0,50,0.00,BKN,OVC,0.00,WeatherDisplay:10.37,2013-04-03 22:14:00,
2013-04-03 18:24:00,32.9,16.7,30.04,WNW,298,8.0,18.0,51,0.00,BKN,OVC,0.00,WeatherDisplay:10.37,2013-04-03 22:24:00,
2013-04-03 18:29:00,32.7,17.0,30.04,WNW,292,7.0,13.0,52,0.00,BKN,OVC,0.00,WeatherDisplay:10.37,2013-04-03 22:29:00,
2013-04-03 18:34:00,32.6,16.4,30.05,WNW,303,9.0,23.0,51,0.00,BKN,OVC,0.00,WeatherDisplay:10.37,2013-04-03 22:34:00,
2013-04-03 18:39:00,32.5,16.4,30.05,WNW,300,6.0,18.0,51,0.00,BKN,OVC,0.00,WeatherDisplay:10.37,2013-04-03 22:39:00,
2013-04-03 18:44:00,32.3,16.6,30.05,WNW,299,5.0,16.0,52,0.00,BKN,OVC,0.00,WeatherDisplay:10.37,2013-04-03 22:44:00,
2013-04-03 18:54:00,31.9,16.7,30.06,WNW,296,6.0,10.0,53,0.00,BKN,OVC,0.00,WeatherDisplay:10.37,2013-04-03 22:54:00,
2013-04-03 18:59:00,31.7,16.5,30.07,NW,308,12.0,16.0,53,0.00,BKN,OVC,0.00,WeatherDisplay:10.37,2013-04-03 22:59:00,
2013-04-03 19:04:00,31.7,16.5,30.07,WNW,297,8.0,14.0,53,0.00,BKN,OVC,0.00,WeatherDisplay:10.37,2013-04-03 23:04:00,
2013-04-03 19:09:00,31.6,16.4,30.07,NW,306,7.0,14.0,53,0.00,BKN,OVC,0.00,WeatherDisplay:10.37,2013-04-03 23:09:00,
2013-04-03 19:14:00,31.4,16.7,30.07,WNW,296,7.0,12.0,54,0.00,FEW,OVC,0.00,WeatherDisplay:10.37,2013-04-03 23:14:00,
2013-04-03 19:19:00,31.3,16.6,30.08,WNW,301,9.0,12.0,54,0.00,FEW,OVC,0.00,WeatherDisplay:10.37,2013-04-03 23:19:00,
2013-04-03 19:24:00,31.3,16.6,30.08,NW,311,6.0,12.0,54,0.00,FEW,OVC,0.00,WeatherDisplay:10.37,2013-04-03 23:24:00,
2013-04-03 19:34:00,31.0,16.3,30.08,WNW,295,8.0,13.0,54,0.00,FEW,OVC,0.00,WeatherDisplay:10.37,2013-04-03 23:34:00,
2013-04-03 19:39:00,31.0,16.7,30.08,WNW,292,7.0,13.0,55,0.00,FEW,OVC,0.00,WeatherDisplay:10.37,2013-04-03 23:39:00,
2013-04-03 19:44:00,31.0,16.7,30.09,WNW,293,7.0,13.0,55,0.00,FEW,OVC,0.00,WeatherDisplay:10.37,2013-04-03 23:44:00,
2013-04-03 19:49:00,31.0,17.1,30.09,NW,309,5.0,12.0,56,0.00,FEW,OVC,0.00,WeatherDisplay:10.37,2013-04-03 23:49:00,
2013-04-03 19:54:00,30.9,16.6,30.09,NW,309,9.0,13.0,55,0.00,FEW,OVC,0.00,WeatherDisplay:10.37,2013-04-03 23:54:00,
2013-04-03 19:59:00,30.8,17.0,30.09,WNW,299,1.0,9.0,56,0.00,FEW,OVC,0.00,WeatherDisplay:10.37,2013-04-03 23:59:00,
2013-04-03 20:09:00,30.6,16.7,30.10,NW,306,6.0,12.0,56,0.00,FEW,OVC,0.00,WeatherDisplay:10.37,2013-04-04 00:09:00,
2013-04-03 20:14:00,30.6,17.2,30.10,WNW,293,3.0,8.0,57,0.00,FEW,OVC,0.00,WeatherDisplay:10.37,2013-04-04 00:14:00,
2013-04-03 20:19:00,30.6,16.7,30.10,WNW,291,7.0,12.0,56,0.00,FEW,OVC,0.00,WeatherDisplay:10.37,2013-04-04 00:19:00,
2013-04-03 20:24:00,30.7,16.4,30.10,WNW,290,8.0,15.0,55,0.00,FEW,OVC,0.00,WeatherDisplay:10.37,2013-04-04 00:24:00,
2013-04-03 20:29:00,30.7,16.8,30.10,WNW,289,5.0,12.0,56,0.00,FEW,OVC,0.00,WeatherDisplay:10.37,2013-04-04 00:29:00,
2013-04-03 20:34:00,30.6,16.7,30.11,WNW,289,5.0,10.0,56,0.00,FEW,OVC,0.00,WeatherDisplay:10.37,2013-04-04 00:34:00,
2013-04-03 20:39:00,30.5,16.2,30.11,WNW,288,3.0,7.0,55,0.00,FEW,OVC,0.00,WeatherDisplay:10.37,2013-04-04 00:39:00,
2013-04-03 20:44:00,30.3,16.5,30.11,WNW,288,3.0,10.0,56,0.00,FEW,OVC,0.00,WeatherDisplay:10.37,2013-04-04 00:44:00,
2013-04-03 20:49:00,30.3,16.5,30.11,West,280,2.0,7.0,56,0.00,FEW,OVC,0.00,WeatherDisplay:10.37,2013-04-04 00:49:00,
2013-04-03 20:59:00,29.8,16.4,30.12,WNW,283,1.0,6.0,57,0.00,FEW,OVC,0.00,WeatherDisplay:10.37,2013-04-04 00:59:00,
2013-04-03 21:04:00,29.6,16.2,30.12,WNW,285,3.0,7.0,57,0.00,FEW,OVC,0.00,WeatherDisplay:10.37,2013-04-04 01:04:00,
2013-04-03 21:09:00,29.6,16.6,30.12,West,270,2.0,5.0,58,0.00,FEW,OVC,0.00,WeatherDisplay:10.37,2013-04-04 01:09:00,
2013-04-03 21:14:00,29.5,16.5,30.12,West,275,2.0,6.0,58,0.00,FEW,OVC,0.00,WeatherDisplay:10.37,2013-04-04 01:14:00,
2013-04-03 21:24:00,29.3,16.8,30.12,West,281,2.0,7.0,59,0.00,SKC,OVC,0.00,WeatherDisplay:10.37,2013-04-04 01:24:00,
2013-04-03 21:29:00,29.2,16.6,30.13,WNW,283,2.0,5.0,59,0.00,SKC,OVC,0.00,WeatherDisplay:10.37,2013-04-04 01:29:00,
2013-04-03 21:34:00,29.1,16.5,30.13,WNW,287,1.0,6.0,59,0.00,SKC,OVC,0.00,WeatherDisplay:10.37,2013-04-04 01:34:00,
2013-04-03 21:39:00,28.8,16.7,30.13,West,273,2.0,5.0,60,0.00,SKC,OVC,0.00,WeatherDisplay:10.37,2013-04-04 01:39:00,
2013-04-03 21:44:00,28.8,16.3,30.13,West,268,1.0,5.0,59,0.00,SKC,OVC,0.00,WeatherDisplay:10.37,2013-04-04 01:44:00,
2013-04-03 21:49:00,28.6,16.5,30.13,West,260,2.0,8.0,60,0.00,SKC,OVC,0.00,WeatherDisplay:10.37,2013-04-04 01:49:00,
2013-04-03 21:54:00,28.7,16.2,30.13,West,281,2.0,6.0,59,0.00,SKC,OVC,0.00,WeatherDisplay:10.37,2013-04-04 01:54:00,
2013-04-03 21:59:00,28.7,16.2,30.14,WNW,298,2.0,7.0,59,0.00,SKC,OVC,0.00,WeatherDisplay:10.37,2013-04-04 01:59:00,
2013-04-03 22:04:00,28.6,16.1,30.14,WNW,288,3.0,6.0,59,0.00,SKC,OVC,0.00,WeatherDisplay:10.37,2013-04-04 02:04:00,
2013-04-03 22:09:00,28.5,16.3,30.14,West,272,2.0,6.0,60,0.00,SKC,OVC,0.00,WeatherDisplay:10.37,2013-04-04 02:09:00,
2013-04-03 22:19:00,28.1,16.0,30.15,WSW,248,1.0,7.0,60,0.00,SKC,OVC,0.00,WeatherDisplay:10.37,2013-04-04 02:19:00,
2013-04-03 22:24:00,28.0,15.9,30.15,SW,226,2.0,5.0,60,0.00,SKC,OVC,0.00,WeatherDisplay:10.37,2013-04-04 02:24:00,
2013-04-03 22:29:00,27.9,15.8,30.15,WSW,240,2.0,6.0,60,0.00,SKC,OVC,0.00,WeatherDisplay:10.37,2013-04-04 02:29:00,
2013-04-03 22:34:00,27.8,16.1,30.15,WSW,253,1.0,3.0,61,0.00,SKC,OVC,0.00,WeatherDisplay:10.37,2013-04-04 02:34:00,
2013-04-03 22:44:00,27.8,15.7,30.15,West,270,1.0,4.0,60,0.00,SKC,OVC,0.00,WeatherDisplay:10.37,2013-04-04 02:44:00,
2013-04-03 22:49:00,27.6,15.5,30.14,WSW,258,1.0,4.0,60,0.00,SKC,OVC,0.00,WeatherDisplay:10.37,2013-04-04 02:49:00,
2013-04-03 22:59:00,27.4,15.3,30.15,West,268,1.0,3.0,60,0.00,SKC,OVC,0.00,WeatherDisplay:10.37,2013-04-04 02:59:00,
2013-04-03 23:04:00,27.3,15.2,30.15,West,264,2.0,4.0,60,0.00,SKC,OVC,0.00,WeatherDisplay:10.37,2013-04-04 03:04:00,
2013-04-03 23:09:00,27.2,15.6,30.15,West,278,2.0,5.0,61,0.00,SKC,OVC,0.00,WeatherDisplay:10.37,2013-04-04 03:09:00,
2013-04-03 23:14:00,27.2,15.5,30.15,WNW,296,5.0,7.0,61,0.00,SKC,OVC,0.00,WeatherDisplay:10.37,2013-04-04 03:14:00,
2013-04-03 23:19:00,27.3,15.6,30.15,WNW,294,2.0,4.0,61,0.00,SKC,OVC,0.00,WeatherDisplay:10.37,2013-04-04 03:19:00,
2013-04-03 23:24:00,27.2,15.5,30.15,WNW,284,2.0,6.0,61,0.00,SKC,OVC,0.00,WeatherDisplay:10.37,2013-04-04 03:24:00,
2013-04-03 23:29:00,26.9,15.3,30.15,West,280,2.0,6.0,61,0.00,SKC,OVC,0.00,WeatherDisplay:10.37,2013-04-04 03:29:00,
2013-04-03 23:34:00,26.8,15.1,30.16,West,277,2.0,6.0,61,0.00,SKC,OVC,0.00,WeatherDisplay:10.37,2013-04-04 03:34:00,
2013-04-03 23:39:00,26.8,15.1,30.16,WNW,283,2.0,6.0,61,0.00,SKC,OVC,0.00,WeatherDisplay:10.37,2013-04-04 03:39:00,
2013-04-03 23:44:00,26.8,14.7,30.16,WNW,284,2.0,5.0,60,0.00,SKC,OVC,0.00,WeatherDisplay:10.37,2013-04-04 03:44:00,
2013-04-03 23:54:00,26.5,14.9,30.16,West,264,1.0,5.0,61,0.00,SKC,OVC,0.00,WeatherDisplay:10.37,2013-04-04 03:54:00,
2013-04-03 23:59:00,26.2,14.9,30.16,West,269,1.0,4.0,62,0.00,SKC,OVC,0.00,WeatherDisplay:10.37,2013-04-04 03:59:00,